Powrót do katalogu

QIANFAN-169

AktywnyŁącznośćPO
NORAD 69386·PAYLOAD·🇨🇳 China

Wystrzelony Jun 4, 2026 z Taiyuan Satellite Launch Center

Loading…

Następne Przeloty (najbliższe 24 godziny)

TLE

ŚwieżeSource: Space-Track

Epoka: Sep 14, 2026, 21:57 UTC

1 69386U 26124E   26257.91505178  .00000132  00000-0  18658-3 0  9992
2 69386  89.0059 352.5804 0001877  98.9000 261.2364 13.51022658 14159

Śledź QIANFAN-169 w czasie rzeczywistym z AllMySat

Download on the App Store